Tracking 30922 objects as of 2-Jul-2025
HD Live streaming from Space Station
objects crossing your sky now

SL-8 R/B

Track SL-8 R/B now!
10-day predictions


NORAD ID: 4391
Int'l Code: 1970-036J
Perigee: 1,475.0 km
Apogee: 1,595.2 km
Inclination: 74.0 °
Period: 116.6 minutes
Semi major axis: 7906 km
RCS: 6.0858 m2 (large)
Launch date: April 25, 1970
Source: Commonwealth of Independent States (former USSR) (CIS)
Launch site: PLESETSK MISSILE AND SPACE COMPLEX (PKMTR)

Note: This is a ROCKET BODY
Your satellite tracking list
Your tracking list is empty




NASA's NSSDC Master Catalog

Two Line Element Set (TLE):
1  4391U 70036J   25182.87633459 -.00000072  00000-0 -44762-3 0  9993
2  4391  74.0290 356.3296 0076072 341.1234 126.9923 12.34978767488203
Source of the keplerian elements: AFSPC